Starlink 11295

operational
NORAD ID: 61536 Int'l Des: 2024-184 Owner: SPXS Country: US Constellation: starlink
LEOCIRCULAR

About Starlink 11295

Description loading...

Live Position

Loading 3D Globe...

Upcoming Passes

Altitude History

Altitude vs Time

uPlot chart will show altitude changes over time

Two-Line Element Set

1 61536U 24184E 25259.58707731 -.00004444 00000-0 -31891-4 0 9995
2 61536 53.1591 14.4447 0000872 99.3963 260.7154 15.69676573 53072
Epoch: Sep 16, 2025 • Age: 34 hours

Current Status

Altitude 365.9 km
Velocity 7.69 km/s
Sub-Earth Point -20.31°S, 0.41°E
Launch Date Oct 15, 2024
Age 0.9 years
Type internet

Technical Details

Classification Payload
Mass 960.00 kg
Dry Mass 910.00 kg
Total Mass 960.00 kg
Length 0.30 m
Diameter 4.10 m
Span 29.00 m
Shape Box + pan
Manufacturer SPXS
Bus Type Starlink V2MD
Phase Status In Orbit
Owner/State SPXS/US

Large Constellations

Loading constellations...